Time,TemperatureF,DewpointF,PressureIn,WindDirection,WindDirectionDegrees,WindSpeedMPH,WindSpeedGustMPH,Humidity,HourlyPrecipIn,Conditions,Clouds,dailyrainin,SoftwareType,DateUTC
2013-05-07 00:00:00,53.8,46.8,27.90,North,-999,0.0,0.0,77,0.00,,,-99.99,FreeWX-Wi 1.01,2013-05-07 05:00:00,
2013-05-07 00:05:00,53.6,45.9,27.90,North,-999,0.0,0.0,75,0.00,,,-99.99,FreeWX-Wi 1.01,2013-05-07 05:05:00,
2013-05-07 00:11:00,53.4,45.0,27.90,North,-999,0.0,0.0,73,0.00,,,-99.99,FreeWX-Wi 1.01,2013-05-07 05:11:00,
2013-05-07 00:16:00,53.1,43.5,27.90,North,-999,0.0,0.0,70,0.00,,,-99.99,FreeWX-Wi 1.01,2013-05-07 05:16:00,
2013-05-07 00:21:00,52.9,42.6,27.88,North,-999,0.0,0.0,68,0.00,,,-99.99,FreeWX-Wi 1.01,2013-05-07 05:21:00,
2013-05-07 00:26:00,53.2,42.3,27.88,North,-999,0.0,0.0,66,0.00,,,-99.99,FreeWX-Wi 1.01,2013-05-07 05:26:00,
2013-05-07 00:31:00,53.8,41.9,27.88,North,-999,0.0,0.0,64,0.00,,,-99.99,FreeWX-Wi 1.01,2013-05-07 05:31:00,
2013-05-07 00:36:00,54.0,41.7,27.88,North,-999,0.0,0.0,63,0.00,,,-99.99,FreeWX-Wi 1.01,2013-05-07 05:36:00,
2013-05-07 00:41:00,53.8,41.9,27.88,North,-999,0.0,0.0,64,0.00,,,-99.99,FreeWX-Wi 1.01,2013-05-07 05:41:00,
2013-05-07 00:46:00,53.1,42.1,27.88,North,-999,0.0,0.0,66,0.00,,,-99.99,FreeWX-Wi 1.01,2013-05-07 05:46:00,
2013-05-07 00:51:00,52.7,43.2,27.88,North,-999,0.0,0.0,70,0.00,,,-99.99,FreeWX-Wi 1.01,2013-05-07 05:51:00,
2013-05-07 00:56:00,52.3,43.5,27.88,North,-999,0.0,0.0,72,0.00,,,-99.99,FreeWX-Wi 1.01,2013-05-07 05:56:00,
2013-05-07 01:01:00,52.0,43.2,27.88,North,-999,0.0,0.0,72,0.00,,,-99.99,FreeWX-Wi 1.01,2013-05-07 06:01:00,
2013-05-07 01:07:00,51.6,43.0,27.88,North,-999,0.0,0.0,72,0.00,,,-99.99,FreeWX-Wi 1.01,2013-05-07 06:07:00,
2013-05-07 01:12:00,51.4,42.8,27.88,North,-999,0.0,0.0,72,0.00,,,-99.99,FreeWX-Wi 1.01,2013-05-07 06:12:00,
2013-05-07 01:17:00,50.7,41.7,27.88,North,-999,0.0,0.0,71,0.00,,,-99.99,FreeWX-Wi 1.01,2013-05-07 06:17:00,
2013-05-07 01:22:00,50.5,43.0,27.88,North,-999,0.0,0.0,75,0.00,,,-99.99,FreeWX-Wi 1.01,2013-05-07 06:22:00,
2013-05-07 01:27:00,50.7,43.2,27.88,North,-999,0.0,0.0,75,0.00,,,-99.99,FreeWX-Wi 1.01,2013-05-07 06:27:00,
2013-05-07 01:32:00,50.5,43.3,27.88,North,-999,0.0,0.0,76,0.00,,,-99.99,FreeWX-Wi 1.01,2013-05-07 06:32:00,
2013-05-07 01:37:00,50.2,43.3,27.88,North,-999,0.0,0.0,77,0.00,,,-99.99,FreeWX-Wi 1.01,2013-05-07 06:37:00,
2013-05-07 01:42:00,50.0,43.7,27.88,North,-999,0.0,0.0,79,0.00,,,-99.99,FreeWX-Wi 1.01,2013-05-07 06:42:00,
2013-05-07 01:47:00,50.4,43.7,27.88,North,-999,0.0,0.0,78,0.00,,,-99.99,FreeWX-Wi 1.01,2013-05-07 06:47:00,
2013-05-07 01:52:00,50.7,43.2,27.88,North,-999,0.0,0.0,75,0.00,,,-99.99,FreeWX-Wi 1.01,2013-05-07 06:52:00,
2013-05-07 01:57:00,50.7,43.2,27.88,North,-999,0.0,0.0,75,0.00,,,-99.99,FreeWX-Wi 1.01,2013-05-07 06:57:00,
2013-05-07 02:03:00,50.2,42.6,27.88,North,-999,0.0,0.0,75,0.00,,,-99.99,FreeWX-Wi 1.01,2013-05-07 07:03:00,
2013-05-07 02:08:00,50.0,42.4,27.88,North,-999,0.0,0.0,75,0.00,,,-99.99,FreeWX-Wi 1.01,2013-05-07 07:08:00,
2013-05-07 02:13:00,49.5,42.6,27.88,North,-999,0.0,0.0,77,0.00,,,-99.99,FreeWX-Wi 1.01,2013-05-07 07:13:00,
2013-05-07 02:18:00,49.8,42.3,27.88,North,-999,0.0,0.0,75,0.00,,,-99.99,FreeWX-Wi 1.01,2013-05-07 07:18:00,
2013-05-07 02:23:00,50.0,42.1,27.88,North,-999,0.0,0.0,74,0.00,,,-99.99,FreeWX-Wi 1.01,2013-05-07 07:23:00,
2013-05-07 02:28:00,50.2,41.9,27.88,North,-999,0.0,0.0,73,0.00,,,-99.99,FreeWX-Wi 1.01,2013-05-07 07:28:00,
2013-05-07 02:33:00,50.4,41.7,27.88,North,-999,0.0,0.0,72,0.00,,,-99.99,FreeWX-Wi 1.01,2013-05-07 07:33:00,
2013-05-07 02:38:00,49.8,41.5,27.88,North,-999,0.0,0.0,73,0.00,,,-99.99,FreeWX-Wi 1.01,2013-05-07 07:38:00,
2013-05-07 02:43:00,49.3,41.4,27.88,North,-999,0.0,0.0,74,0.00,,,-99.99,FreeWX-Wi 1.01,2013-05-07 07:43:00,
2013-05-07 02:48:00,48.9,41.4,27.88,North,-999,0.0,0.0,75,0.00,,,-99.99,FreeWX-Wi 1.01,2013-05-07 07:48:00,
2013-05-07 02:54:00,48.7,41.5,27.88,North,-999,0.0,0.0,76,0.00,,,-99.99,FreeWX-Wi 1.01,2013-05-07 07:54:00,
2013-05-07 02:59:00,48.6,41.7,27.88,North,-999,0.0,0.0,77,0.00,,,-99.99,FreeWX-Wi 1.01,2013-05-07 07:59:00,
2013-05-07 03:04:00,48.6,42.6,27.88,North,-999,0.0,0.0,80,0.00,,,-99.99,FreeWX-Wi 1.01,2013-05-07 08:04:00,
2013-05-07 03:09:00,49.3,42.4,27.88,North,-999,0.0,0.0,77,0.00,,,-99.99,FreeWX-Wi 1.01,2013-05-07 08:09:00,
2013-05-07 03:14:00,49.8,41.9,27.88,North,-999,0.0,0.0,74,0.00,,,-99.99,FreeWX-Wi 1.01,2013-05-07 08:14:00,
2013-05-07 03:19:00,49.6,41.4,27.88,North,-999,0.0,0.0,73,0.00,,,-99.99,FreeWX-Wi 1.01,2013-05-07 08:19:00,
2013-05-07 03:24:00,49.3,41.4,27.88,North,-999,0.0,0.0,74,0.00,,,-99.99,FreeWX-Wi 1.01,2013-05-07 08:24:00,
2013-05-07 03:29:00,49.3,42.1,27.88,North,-999,0.0,0.0,76,0.00,,,-99.99,FreeWX-Wi 1.01,2013-05-07 08:29:00,
2013-05-07 03:35:00,49.5,42.6,27.88,North,-999,0.0,0.0,77,0.00,,,-99.99,FreeWX-Wi 1.01,2013-05-07 08:35:00,
2013-05-07 03:40:00,49.5,42.6,27.88,North,-999,0.0,0.0,77,0.00,,,-99.99,FreeWX-Wi 1.01,2013-05-07 08:40:00,
2013-05-07 03:45:00,49.3,42.8,27.88,North,-999,0.0,0.0,78,0.00,,,-99.99,FreeWX-Wi 1.01,2013-05-07 08:45:00,
2013-05-07 03:50:00,49.1,42.8,27.88,North,-999,0.0,0.0,79,0.00,,,-99.99,FreeWX-Wi 1.01,2013-05-07 08:50:00,
2013-05-07 03:55:00,48.7,42.8,27.88,North,-999,0.0,0.0,80,0.00,,,-99.99,FreeWX-Wi 1.01,2013-05-07 08:55:00,
2013-05-07 04:00:00,48.7,43.2,27.88,North,-999,0.0,0.0,81,0.00,,,-99.99,FreeWX-Wi 1.01,2013-05-07 09:00:00,
2013-05-07 04:05:00,48.9,43.3,27.85,North,-999,0.0,0.0,81,0.00,,,-99.99,FreeWX-Wi 1.01,2013-05-07 09:05:00,
2013-05-07 04:10:00,48.7,43.2,27.85,North,-999,0.0,0.0,81,0.00,,,-99.99,FreeWX-Wi 1.01,2013-05-07 09:10:00,
2013-05-07 04:15:00,48.7,43.2,27.85,North,-999,0.0,0.0,81,0.00,,,-99.99,FreeWX-Wi 1.01,2013-05-07 09:15:00,
2013-05-07 04:20:00,48.7,43.9,27.88,North,-999,0.0,0.0,83,0.00,,,-99.99,FreeWX-Wi 1.01,2013-05-07 09:20:00,
2013-05-07 04:25:00,48.4,42.3,27.88,North,-999,0.0,0.0,79,0.00,,,-99.99,FreeWX-Wi 1.01,2013-05-07 09:25:00,
2013-05-07 04:30:00,48.0,41.9,27.88,North,-999,0.0,0.0,79,0.00,,,-99.99,FreeWX-Wi 1.01,2013-05-07 09:30:00,
2013-05-07 04:36:00,47.7,41.7,27.88,North,-999,0.0,0.0,80,0.00,,,-99.99,FreeWX-Wi 1.01,2013-05-07 09:36:00,
2013-05-07 04:41:00,47.5,42.6,27.88,North,-999,0.0,0.0,83,0.00,,,-99.99,FreeWX-Wi 1.01,2013-05-07 09:41:00,
2013-05-07 04:46:00,46.8,41.2,27.88,North,-999,0.0,0.0,81,0.00,,,-99.99,FreeWX-Wi 1.01,2013-05-07 09:46:00,
2013-05-07 04:51:00,46.2,41.0,27.88,North,-999,0.0,0.0,82,0.00,,,-99.99,FreeWX-Wi 1.01,2013-05-07 09:51:00,
2013-05-07 04:56:00,46.9,43.0,27.88,North,-999,0.0,0.0,86,0.00,,,-99.99,FreeWX-Wi 1.01,2013-05-07 09:56:00,
2013-05-07 05:01:00,46.8,43.7,27.88,North,-999,0.0,0.0,89,0.00,,,-99.99,FreeWX-Wi 1.01,2013-05-07 10:01:00,
2013-05-07 05:06:00,47.3,44.8,27.88,North,-999,0.0,0.0,91,0.00,,,-99.99,FreeWX-Wi 1.01,2013-05-07 10:06:00,
2013-05-07 05:11:00,47.7,45.7,27.88,North,-999,0.0,0.0,93,0.00,,,-99.99,FreeWX-Wi 1.01,2013-05-07 10:11:00,
2013-05-07 05:16:00,48.0,46.4,27.88,North,-999,0.0,0.0,94,0.00,,,-99.99,FreeWX-Wi 1.01,2013-05-07 10:16:00,
2013-05-07 05:21:00,47.7,46.0,27.85,North,-999,0.0,0.0,94,0.00,,,-99.99,FreeWX-Wi 1.01,2013-05-07 10:21:00,
2013-05-07 05:26:00,47.3,45.3,27.85,North,-999,0.0,0.0,93,0.00,,,-99.99,FreeWX-Wi 1.01,2013-05-07 10:26:00,
2013-05-07 05:31:00,47.5,45.5,27.85,North,-999,0.0,0.0,93,0.00,,,-99.99,FreeWX-Wi 1.01,2013-05-07 10:31:00,
2013-05-07 05:37:00,47.8,46.2,27.85,North,-999,0.0,0.0,94,0.00,,,-99.99,FreeWX-Wi 1.01,2013-05-07 10:37:00,
2013-05-07 05:42:00,47.7,46.0,27.85,North,-999,0.0,0.0,94,0.00,,,-99.99,FreeWX-Wi 1.01,2013-05-07 10:42:00,
2013-05-07 05:47:00,47.5,45.9,27.85,North,-999,0.0,0.0,94,0.00,,,-99.99,FreeWX-Wi 1.01,2013-05-07 10:47:00,
2013-05-07 05:52:00,47.3,45.7,27.85,North,-999,0.0,0.0,94,0.00,,,-99.99,FreeWX-Wi 1.01,2013-05-07 10:52:00,
2013-05-07 05:57:00,46.9,45.0,27.85,North,-999,0.0,0.0,93,0.00,,,-99.99,FreeWX-Wi 1.01,2013-05-07 10:57:00,
2013-05-07 06:02:00,46.4,44.4,27.85,North,-999,0.0,0.0,93,0.00,,,-99.99,FreeWX-Wi 1.01,2013-05-07 11:02:00,
2013-05-07 06:07:00,45.9,43.7,27.85,North,-999,0.0,0.0,92,0.00,,,-99.99,FreeWX-Wi 1.01,2013-05-07 11:07:00,
2013-05-07 06:12:00,45.3,42.8,27.85,North,-999,0.0,0.0,91,0.00,,,-99.99,FreeWX-Wi 1.01,2013-05-07 11:12:00,
2013-05-07 06:17:00,45.3,43.2,27.85,North,-999,0.0,0.0,92,0.00,,,-99.99,FreeWX-Wi 1.01,2013-05-07 11:17:00,
2013-05-07 06:22:00,45.0,42.8,27.85,North,-999,0.0,0.0,92,0.00,,,-99.99,FreeWX-Wi 1.01,2013-05-07 11:22:00,
2013-05-07 06:27:00,45.3,43.3,27.85,North,-999,0.0,0.0,93,0.00,,,-99.99,FreeWX-Wi 1.01,2013-05-07 11:27:00,
2013-05-07 06:32:00,45.5,43.9,27.85,North,-999,0.0,0.0,94,0.00,,,-99.99,FreeWX-Wi 1.01,2013-05-07 11:32:00,
2013-05-07 06:38:00,45.7,44.1,27.88,North,-999,0.0,0.0,94,0.00,,,-99.99,FreeWX-Wi 1.01,2013-05-07 11:38:00,
2013-05-07 06:43:00,46.2,44.8,27.88,North,-999,0.0,0.0,95,0.00,,,-99.99,FreeWX-Wi 1.01,2013-05-07 11:43:00,
2013-05-07 06:48:00,46.8,45.3,27.85,North,-999,0.0,0.0,95,0.00,,,-99.99,FreeWX-Wi 1.01,2013-05-07 11:48:00,
2013-05-07 06:53:00,47.1,46.0,27.85,North,-999,0.0,0.0,96,0.00,,,-99.99,FreeWX-Wi 1.01,2013-05-07 11:53:00,
2013-05-07 06:58:00,47.5,46.4,27.85,North,-999,0.0,0.0,96,0.00,,,-99.99,FreeWX-Wi 1.01,2013-05-07 11:58:00,
2013-05-07 07:03:00,48.2,46.8,27.88,North,-999,0.0,0.0,95,0.00,,,-99.99,FreeWX-Wi 1.01,2013-05-07 12:03:00,
2013-05-07 07:08:00,48.6,46.9,27.88,North,-999,0.0,0.0,94,0.00,,,-99.99,FreeWX-Wi 1.01,2013-05-07 12:08:00,
2013-05-07 07:13:00,49.1,47.1,27.88,North,-999,0.0,0.0,93,0.00,,,-99.99,FreeWX-Wi 1.01,2013-05-07 12:13:00,
2013-05-07 07:18:00,49.8,47.7,27.88,North,-999,0.0,0.0,92,0.00,,,-99.99,FreeWX-Wi 1.01,2013-05-07 12:18:00,
2013-05-07 07:23:00,50.4,47.5,27.88,North,-999,0.0,0.0,90,0.00,,,-99.99,FreeWX-Wi 1.01,2013-05-07 12:23:00,
2013-05-07 07:28:00,50.7,47.3,27.88,North,-999,0.0,0.0,88,0.00,,,-99.99,FreeWX-Wi 1.01,2013-05-07 12:28:00,
2013-05-07 07:33:00,51.3,48.2,27.88,North,-999,0.0,0.0,89,0.00,,,-99.99,FreeWX-Wi 1.01,2013-05-07 12:33:00,
2013-05-07 07:38:00,52.0,48.9,27.88,North,-999,0.0,0.0,89,0.00,,,-99.99,FreeWX-Wi 1.01,2013-05-07 12:38:00,
2013-05-07 07:44:00,52.7,49.3,27.88,North,-999,0.0,0.0,88,0.00,,,-99.99,FreeWX-Wi 1.01,2013-05-07 12:44:00,
2013-05-07 07:49:00,53.6,49.8,27.88,North,-999,0.0,0.0,87,0.00,,,-99.99,FreeWX-Wi 1.01,2013-05-07 12:49:00,
2013-05-07 07:54:00,54.7,49.3,27.88,North,-999,0.0,0.0,82,0.00,,,-99.99,FreeWX-Wi 1.01,2013-05-07 12:54:00,
2013-05-07 07:59:00,55.2,49.8,27.88,North,-999,0.0,0.0,82,0.00,,,-99.99,FreeWX-Wi 1.01,2013-05-07 12:59:00,
2013-05-07 08:04:00,55.9,50.9,27.88,North,-999,0.0,0.0,83,0.00,,,-99.99,FreeWX-Wi 1.01,2013-05-07 13:04:00,
2013-05-07 08:09:00,56.7,50.9,27.88,North,-999,0.0,0.0,81,0.00,,,-99.99,FreeWX-Wi 1.01,2013-05-07 13:09:00,
2013-05-07 08:14:00,58.3,50.4,27.88,North,-999,0.0,0.0,75,0.00,,,-99.99,FreeWX-Wi 1.01,2013-05-07 13:14:00,
2013-05-07 08:19:00,62.2,49.5,27.88,North,-999,0.0,0.0,63,0.00,,,-99.99,FreeWX-Wi 1.01,2013-05-07 13:19:00,
2013-05-07 08:24:00,63.5,47.5,27.88,North,-999,0.0,0.0,56,0.00,,,-99.99,FreeWX-Wi 1.01,2013-05-07 13:24:00,
2013-05-07 08:29:00,64.0,48.0,27.88,North,-999,0.0,0.0,56,0.00,,,-99.99,FreeWX-Wi 1.01,2013-05-07 13:29:00,
2013-05-07 08:34:00,63.7,45.1,27.88,North,-999,0.0,0.0,51,0.00,,,-99.99,FreeWX-Wi 1.01,2013-05-07 13:34:00,
2013-05-07 08:40:00,63.5,45.5,27.88,North,-999,0.0,0.0,52,0.00,,,-99.99,FreeWX-Wi 1.01,2013-05-07 13:40:00,
2013-05-07 08:45:00,63.1,46.2,27.88,North,-999,0.0,0.0,54,0.00,,,-99.99,FreeWX-Wi 1.01,2013-05-07 13:45:00,
2013-05-07 08:50:00,62.8,45.9,27.88,North,-999,0.0,0.0,54,0.00,,,-99.99,FreeWX-Wi 1.01,2013-05-07 13:50:00,
2013-05-07 08:55:00,62.4,47.5,27.88,North,-999,0.0,0.0,58,0.00,,,-99.99,FreeWX-Wi 1.01,2013-05-07 13:55:00,
2013-05-07 09:00:00,62.8,48.2,27.88,North,-999,0.0,0.0,59,0.00,,,-99.99,FreeWX-Wi 1.01,2013-05-07 14:00:00,
2013-05-07 09:05:00,63.0,46.9,27.88,North,-999,0.0,0.0,56,0.00,,,-99.99,FreeWX-Wi 1.01,2013-05-07 14:05:00,
2013-05-07 09:10:00,63.5,46.0,27.88,North,-999,0.0,0.0,53,0.00,,,-99.99,FreeWX-Wi 1.01,2013-05-07 14:10:00,
2013-05-07 09:15:00,63.9,46.9,27.88,North,-999,0.0,0.0,54,0.00,,,-99.99,FreeWX-Wi 1.01,2013-05-07 14:15:00,
2013-05-07 09:21:00,64.2,46.8,27.88,North,-999,0.0,0.0,53,0.00,,,-99.99,FreeWX-Wi 1.01,2013-05-07 14:21:00,
2013-05-07 09:26:00,64.8,47.3,27.88,North,-999,0.0,0.0,53,0.00,,,-99.99,FreeWX-Wi 1.01,2013-05-07 14:26:00,
2013-05-07 09:31:00,65.5,46.4,27.88,North,-999,0.0,0.0,50,0.00,,,-99.99,FreeWX-Wi 1.01,2013-05-07 14:31:00,
2013-05-07 09:36:00,65.7,46.0,27.88,North,-999,0.0,0.0,49,0.00,,,-99.99,FreeWX-Wi 1.01,2013-05-07 14:36:00,
2013-05-07 09:41:00,66.0,46.8,27.88,North,-999,0.0,0.0,50,0.00,,,-99.99,FreeWX-Wi 1.01,2013-05-07 14:41:00,
2013-05-07 09:46:00,66.6,46.8,27.88,North,-999,0.0,0.0,49,0.00,,,-99.99,FreeWX-Wi 1.01,2013-05-07 14:46:00,
2013-05-07 09:51:00,66.7,44.8,27.88,North,-999,0.0,0.0,45,0.00,,,-99.99,FreeWX-Wi 1.01,2013-05-07 14:51:00,
2013-05-07 09:56:00,66.7,46.4,27.88,North,-999,0.0,0.0,48,0.00,,,-99.99,FreeWX-Wi 1.01,2013-05-07 14:56:00,
2013-05-07 10:01:00,67.3,45.9,27.88,North,-999,0.0,0.0,46,0.00,,,-99.99,FreeWX-Wi 1.01,2013-05-07 15:01:00,
2013-05-07 10:06:00,68.0,44.6,27.88,North,-999,0.0,0.0,43,0.00,,,-99.99,FreeWX-Wi 1.01,2013-05-07 15:06:00,
2013-05-07 10:11:00,69.3,45.1,27.88,North,-999,0.0,0.0,42,0.00,,,-99.99,FreeWX-Wi 1.01,2013-05-07 15:11:00,
2013-05-07 10:16:00,69.6,41.5,27.88,North,-999,0.0,0.0,36,0.00,,,-99.99,FreeWX-Wi 1.01,2013-05-07 15:16:00,
2013-05-07 10:22:00,70.0,41.7,27.88,North,-999,0.0,0.0,36,0.00,,,-99.99,FreeWX-Wi 1.01,2013-05-07 15:22:00,
2013-05-07 10:27:00,70.9,41.2,27.88,North,-999,0.0,0.0,34,0.00,,,-99.99,FreeWX-Wi 1.01,2013-05-07 15:27:00,
2013-05-07 10:32:00,71.1,41.2,27.88,North,-999,0.0,0.0,34,0.00,,,-99.99,FreeWX-Wi 1.01,2013-05-07 15:32:00,
2013-05-07 10:37:00,70.3,39.9,27.88,North,-999,0.0,0.0,33,0.00,,,-99.99,FreeWX-Wi 1.01,2013-05-07 15:37:00,
2013-05-07 10:42:00,71.1,42.1,27.88,North,-999,0.0,0.0,35,0.00,,,-99.99,FreeWX-Wi 1.01,2013-05-07 15:42:00,
2013-05-07 10:47:00,72.1,41.4,27.88,North,-999,0.0,0.0,33,0.00,,,-99.99,FreeWX-Wi 1.01,2013-05-07 15:47:00,
2013-05-07 10:52:00,72.9,40.5,27.88,North,-999,0.0,0.0,31,0.00,,,-99.99,FreeWX-Wi 1.01,2013-05-07 15:52:00,
2013-05-07 10:57:00,73.4,41.0,27.88,North,-999,0.0,0.0,31,0.00,,,-99.99,FreeWX-Wi 1.01,2013-05-07 15:57:00,
2013-05-07 11:02:00,73.0,41.4,27.88,North,-999,0.0,0.0,32,0.00,,,-99.99,FreeWX-Wi 1.01,2013-05-07 16:02:00,
2013-05-07 11:07:00,73.4,38.3,27.88,North,-999,0.0,0.0,28,0.00,,,-99.99,FreeWX-Wi 1.01,2013-05-07 16:07:00,
2013-05-07 11:12:00,74.3,43.3,27.88,North,-999,0.0,0.0,33,0.00,,,-99.99,FreeWX-Wi 1.01,2013-05-07 16:12:00,
2013-05-07 11:17:00,75.2,38.8,27.88,North,-999,0.0,0.0,27,0.00,,,-99.99,FreeWX-Wi 1.01,2013-05-07 16:17:00,
2013-05-07 11:22:00,75.4,39.0,27.88,North,-999,0.0,0.0,27,0.00,,,-99.99,FreeWX-Wi 1.01,2013-05-07 16:22:00,
2013-05-07 11:27:00,75.6,40.1,27.88,North,-999,0.0,0.0,28,0.00,,,-99.99,FreeWX-Wi 1.01,2013-05-07 16:27:00,
2013-05-07 11:32:00,75.4,40.8,27.88,North,-999,0.0,0.0,29,0.00,,,-99.99,FreeWX-Wi 1.01,2013-05-07 16:32:00,
2013-05-07 11:38:00,75.4,42.6,27.88,North,-999,0.0,0.0,31,0.00,,,-99.99,FreeWX-Wi 1.01,2013-05-07 16:38:00,
2013-05-07 11:43:00,76.1,44.1,27.88,North,-999,0.0,0.0,32,0.00,,,-99.99,FreeWX-Wi 1.01,2013-05-07 16:43:00,
2013-05-07 11:48:00,76.3,43.3,27.88,North,-999,0.0,0.0,31,0.00,,,-99.99,FreeWX-Wi 1.01,2013-05-07 16:48:00,
2013-05-07 11:53:00,75.4,39.0,27.88,North,-999,0.0,0.0,27,0.00,,,-99.99,FreeWX-Wi 1.01,2013-05-07 16:53:00,
2013-05-07 11:58:00,73.8,39.6,27.88,North,-999,0.0,0.0,29,0.00,,,-99.99,FreeWX-Wi 1.01,2013-05-07 16:58:00,
2013-05-07 12:03:00,76.1,39.7,27.88,North,-999,0.0,0.0,27,0.00,,,-99.99,FreeWX-Wi 1.01,2013-05-07 17:03:00,
2013-05-07 12:08:00,77.2,37.6,27.88,North,-999,0.0,0.0,24,0.00,,,-99.99,FreeWX-Wi 1.01,2013-05-07 17:08:00,
2013-05-07 12:13:00,77.9,37.0,27.88,North,-999,0.0,0.0,23,0.00,,,-99.99,FreeWX-Wi 1.01,2013-05-07 17:13:00,
2013-05-07 12:18:00,78.4,37.6,27.85,North,-999,0.0,0.0,23,0.00,,,-99.99,FreeWX-Wi 1.01,2013-05-07 17:18:00,
2013-05-07 12:23:00,76.8,42.1,27.85,North,-999,0.0,0.0,29,0.00,,,-99.99,FreeWX-Wi 1.01,2013-05-07 17:23:00,
2013-05-07 12:28:00,77.4,38.8,27.85,North,-999,0.0,0.0,25,0.00,,,-99.99,FreeWX-Wi 1.01,2013-05-07 17:28:00,
2013-05-07 12:33:00,79.2,38.1,27.85,North,-999,0.0,0.0,23,0.00,,,-99.99,FreeWX-Wi 1.01,2013-05-07 17:33:00,
2013-05-07 12:38:00,78.6,37.8,27.85,North,-999,0.0,0.0,23,0.00,,,-99.99,FreeWX-Wi 1.01,2013-05-07 17:38:00,
2013-05-07 12:43:00,78.1,42.3,27.85,North,-999,0.0,0.0,28,0.00,,,-99.99,FreeWX-Wi 1.01,2013-05-07 17:43:00,
2013-05-07 12:48:00,79.7,42.8,27.85,North,-999,0.0,0.0,27,0.00,,,-99.99,FreeWX-Wi 1.01,2013-05-07 17:48:00,
2013-05-07 12:54:00,80.4,41.4,27.85,North,-999,0.0,0.0,25,0.00,,,-99.99,FreeWX-Wi 1.01,2013-05-07 17:54:00,
2013-05-07 12:59:00,76.6,39.2,27.85,North,-999,0.0,0.0,26,0.00,,,-99.99,FreeWX-Wi 1.01,2013-05-07 17:59:00,
2013-05-07 13:04:00,76.5,43.5,27.85,North,-999,0.0,0.0,31,0.00,,,-99.99,FreeWX-Wi 1.01,2013-05-07 18:04:00,
2013-05-07 13:09:00,76.8,44.8,27.85,North,-999,0.0,0.0,32,0.00,,,-99.99,FreeWX-Wi 1.01,2013-05-07 18:09:00,
2013-05-07 13:14:00,77.7,39.0,27.85,North,-999,0.0,0.0,25,0.00,,,-99.99,FreeWX-Wi 1.01,2013-05-07 18:14:00,
2013-05-07 13:19:00,77.4,40.8,27.85,North,-999,0.0,0.0,27,0.00,,,-99.99,FreeWX-Wi 1.01,2013-05-07 18:19:00,
2013-05-07 13:24:00,77.0,39.6,27.85,North,-999,0.0,0.0,26,0.00,,,-99.99,FreeWX-Wi 1.01,2013-05-07 18:24:00,
2013-05-07 13:29:00,76.5,41.0,27.85,North,-999,0.0,0.0,28,0.00,,,-99.99,FreeWX-Wi 1.01,2013-05-07 18:29:00,
2013-05-07 13:34:00,75.9,40.5,27.85,North,-999,0.0,0.0,28,0.00,,,-99.99,FreeWX-Wi 1.01,2013-05-07 18:34:00,
2013-05-07 13:39:00,75.6,37.2,27.85,North,-999,0.0,0.0,25,0.00,,,-99.99,FreeWX-Wi 1.01,2013-05-07 18:39:00,
2013-05-07 13:44:00,75.0,36.9,27.85,North,-999,0.0,0.0,25,0.00,,,-99.99,FreeWX-Wi 1.01,2013-05-07 18:44:00,
2013-05-07 13:49:00,76.1,38.7,27.85,North,-999,0.0,0.0,26,0.00,,,-99.99,FreeWX-Wi 1.01,2013-05-07 18:49:00,
2013-05-07 13:54:00,76.6,38.1,27.85,North,-999,0.0,0.0,25,0.00,,,-99.99,FreeWX-Wi 1.01,2013-05-07 18:54:00,
2013-05-07 13:59:00,76.5,39.9,27.85,North,-999,0.0,0.0,27,0.00,,,-99.99,FreeWX-Wi 1.01,2013-05-07 18:59:00,
2013-05-07 14:05:00,77.5,39.9,27.85,North,-999,0.0,0.0,26,0.00,,,-99.99,FreeWX-Wi 1.01,2013-05-07 19:05:00,
2013-05-07 14:10:00,77.5,44.4,27.85,North,-999,0.0,0.0,31,0.00,,,-99.99,FreeWX-Wi 1.01,2013-05-07 19:10:00,
2013-05-07 14:15:00,79.7,41.7,27.85,North,-999,0.0,0.0,26,0.00,,,-99.99,FreeWX-Wi 1.01,2013-05-07 19:15:00,
2013-05-07 14:20:00,80.8,38.3,27.85,North,-999,0.0,0.0,22,0.00,,,-99.99,FreeWX-Wi 1.01,2013-05-07 19:20:00,
2013-05-07 14:25:00,81.3,38.8,27.85,North,-999,0.0,0.0,22,0.00,,,-99.99,FreeWX-Wi 1.01,2013-05-07 19:25:00,
2013-05-07 14:30:00,81.7,37.9,27.85,North,-999,0.0,0.0,21,0.00,,,-99.99,FreeWX-Wi 1.01,2013-05-07 19:30:00,
2013-05-07 14:35:00,81.0,37.4,27.85,North,-999,0.0,0.0,21,0.00,,,-99.99,FreeWX-Wi 1.01,2013-05-07 19:35:00,
2013-05-07 14:40:00,81.3,36.3,27.85,North,-999,0.0,0.0,20,0.00,,,-99.99,FreeWX-Wi 1.01,2013-05-07 19:40:00,
2013-05-07 14:45:00,81.1,36.3,27.85,North,-999,0.0,0.0,20,0.00,,,-99.99,FreeWX-Wi 1.01,2013-05-07 19:45:00,
2013-05-07 14:50:00,80.6,38.3,27.85,North,-999,0.0,0.0,22,0.00,,,-99.99,FreeWX-Wi 1.01,2013-05-07 19:50:00,
2013-05-07 14:55:00,80.6,37.0,27.85,North,-999,0.0,0.0,21,0.00,,,-99.99,FreeWX-Wi 1.01,2013-05-07 19:55:00,
2013-05-07 15:00:00,80.8,38.3,27.85,North,-999,0.0,0.0,22,0.00,,,-99.99,FreeWX-Wi 1.01,2013-05-07 20:00:00,
2013-05-07 15:05:00,79.5,40.6,27.85,North,-999,0.0,0.0,25,0.00,,,-99.99,FreeWX-Wi 1.01,2013-05-07 20:05:00,
2013-05-07 15:10:00,78.3,39.6,27.85,North,-999,0.0,0.0,25,0.00,,,-99.99,FreeWX-Wi 1.01,2013-05-07 20:10:00,
2013-05-07 15:15:00,78.8,43.0,27.85,North,-999,0.0,0.0,28,0.00,,,-99.99,FreeWX-Wi 1.01,2013-05-07 20:15:00,
2013-05-07 15:20:00,79.3,42.4,27.85,North,-999,0.0,0.0,27,0.00,,,-99.99,FreeWX-Wi 1.01,2013-05-07 20:20:00,
2013-05-07 15:26:00,78.6,38.8,27.85,North,-999,0.0,0.0,24,0.00,,,-99.99,FreeWX-Wi 1.01,2013-05-07 20:26:00,
2013-05-07 15:31:00,76.8,36.1,27.85,North,-999,0.0,0.0,23,0.00,,,-99.99,FreeWX-Wi 1.01,2013-05-07 20:31:00,
2013-05-07 15:36:00,75.7,38.5,27.85,North,-999,0.0,0.0,26,0.00,,,-99.99,FreeWX-Wi 1.01,2013-05-07 20:36:00,
2013-05-07 15:41:00,75.2,38.8,27.85,North,-999,0.0,0.0,27,0.00,,,-99.99,FreeWX-Wi 1.01,2013-05-07 20:41:00,
2013-05-07 15:46:00,76.1,37.8,27.85,North,-999,0.0,0.0,25,0.00,,,-99.99,FreeWX-Wi 1.01,2013-05-07 20:46:00,
2013-05-07 15:51:00,76.3,39.7,27.85,North,-999,0.0,0.0,27,0.00,,,-99.99,FreeWX-Wi 1.01,2013-05-07 20:51:00,
2013-05-07 15:56:00,75.2,41.5,27.85,North,-999,0.0,0.0,30,0.00,,,-99.99,FreeWX-Wi 1.01,2013-05-07 20:56:00,
2013-05-07 16:01:00,74.5,41.0,27.85,North,-999,0.0,0.0,30,0.00,,,-99.99,FreeWX-Wi 1.01,2013-05-07 21:01:00,
2013-05-07 16:06:00,74.8,38.7,27.85,North,-999,0.0,0.0,27,0.00,,,-99.99,FreeWX-Wi 1.01,2013-05-07 21:06:00,
2013-05-07 16:11:00,76.8,38.3,27.85,North,-999,0.0,0.0,25,0.00,,,-99.99,FreeWX-Wi 1.01,2013-05-07 21:11:00,
2013-05-07 16:16:00,77.7,40.1,27.85,North,-999,0.0,0.0,26,0.00,,,-99.99,FreeWX-Wi 1.01,2013-05-07 21:16:00,
2013-05-07 16:21:00,79.0,37.9,27.82,North,-999,0.0,0.0,23,0.00,,,-99.99,FreeWX-Wi 1.01,2013-05-07 21:21:00,
2013-05-07 16:26:00,79.2,38.1,27.82,North,-999,0.0,0.0,23,0.00,,,-99.99,FreeWX-Wi 1.01,2013-05-07 21:26:00,
2013-05-07 16:31:00,78.1,37.2,27.82,North,-999,0.0,0.0,23,0.00,,,-99.99,FreeWX-Wi 1.01,2013-05-07 21:31:00,
2013-05-07 16:36:00,77.4,35.6,27.82,North,-999,0.0,0.0,22,0.00,,,-99.99,FreeWX-Wi 1.01,2013-05-07 21:36:00,
2013-05-07 16:42:00,77.5,37.9,27.82,North,-999,0.0,0.0,24,0.00,,,-99.99,FreeWX-Wi 1.01,2013-05-07 21:42:00,
2013-05-07 16:47:00,77.0,37.4,27.82,North,-999,0.0,0.0,24,0.00,,,-99.99,FreeWX-Wi 1.01,2013-05-07 21:47:00,
2013-05-07 16:52:00,75.9,40.5,27.82,North,-999,0.0,0.0,28,0.00,,,-99.99,FreeWX-Wi 1.01,2013-05-07 21:52:00,
2013-05-07 16:57:00,74.8,42.1,27.82,North,-999,0.0,0.0,31,0.00,,,-99.99,FreeWX-Wi 1.01,2013-05-07 21:57:00,
2013-05-07 17:02:00,74.3,41.7,27.82,North,-999,0.0,0.0,31,0.00,,,-99.99,FreeWX-Wi 1.01,2013-05-07 22:02:00,
2013-05-07 17:07:00,74.1,41.5,27.82,North,-999,0.0,0.0,31,0.00,,,-99.99,FreeWX-Wi 1.01,2013-05-07 22:07:00,
2013-05-07 17:12:00,73.9,41.4,27.82,North,-999,0.0,0.0,31,0.00,,,-99.99,FreeWX-Wi 1.01,2013-05-07 22:12:00,
2013-05-07 17:17:00,73.6,41.9,27.82,North,-999,0.0,0.0,32,0.00,,,-99.99,FreeWX-Wi 1.01,2013-05-07 22:17:00,
2013-05-07 17:22:00,73.2,41.5,27.82,North,-999,0.0,0.0,32,0.00,,,-99.99,FreeWX-Wi 1.01,2013-05-07 22:22:00,
2013-05-07 17:27:00,73.0,42.3,27.82,North,-999,0.0,0.0,33,0.00,,,-99.99,FreeWX-Wi 1.01,2013-05-07 22:27:00,
2013-05-07 17:32:00,73.0,41.4,27.82,North,-999,0.0,0.0,32,0.00,,,-99.99,FreeWX-Wi 1.01,2013-05-07 22:32:00,
2013-05-07 17:37:00,73.2,42.4,27.82,North,-999,0.0,0.0,33,0.00,,,-99.99,FreeWX-Wi 1.01,2013-05-07 22:37:00,
2013-05-07 17:42:00,73.9,42.3,27.82,North,-999,0.0,0.0,32,0.00,,,-99.99,FreeWX-Wi 1.01,2013-05-07 22:42:00,
2013-05-07 17:47:00,74.5,42.6,27.82,North,-999,0.0,0.0,32,0.00,,,-99.99,FreeWX-Wi 1.01,2013-05-07 22:47:00,
2013-05-07 17:52:00,74.7,42.1,27.82,North,-999,0.0,0.0,31,0.00,,,-99.99,FreeWX-Wi 1.01,2013-05-07 22:52:00,
2013-05-07 17:58:00,74.7,42.1,27.82,North,-999,0.0,0.0,31,0.00,,,-99.99,FreeWX-Wi 1.01,2013-05-07 22:58:00,
2013-05-07 18:03:00,74.5,41.9,27.82,North,-999,0.0,0.0,31,0.00,,,-99.99,FreeWX-Wi 1.01,2013-05-07 23:03:00,
2013-05-07 18:08:00,74.3,41.7,27.82,North,-999,0.0,0.0,31,0.00,,,-99.99,FreeWX-Wi 1.01,2013-05-07 23:08:00,
2013-05-07 18:13:00,73.9,40.5,27.82,North,-999,0.0,0.0,30,0.00,,,-99.99,FreeWX-Wi 1.01,2013-05-07 23:13:00,
2013-05-07 18:18:00,74.7,39.4,27.82,North,-999,0.0,0.0,28,0.00,,,-99.99,FreeWX-Wi 1.01,2013-05-07 23:18:00,
2013-05-07 18:23:00,77.7,40.1,27.82,North,-999,0.0,0.0,26,0.00,,,-99.99,FreeWX-Wi 1.01,2013-05-07 23:23:00,
2013-05-07 18:28:00,79.9,38.8,27.82,North,-999,0.0,0.0,23,0.00,,,-99.99,FreeWX-Wi 1.01,2013-05-07 23:28:00,
2013-05-07 18:33:00,81.0,37.4,27.82,North,-999,0.0,0.0,21,0.00,,,-99.99,FreeWX-Wi 1.01,2013-05-07 23:33:00,
2013-05-07 18:38:00,81.5,37.8,27.82,North,-999,0.0,0.0,21,0.00,,,-99.99,FreeWX-Wi 1.01,2013-05-07 23:38:00,
2013-05-07 18:43:00,81.5,36.5,27.82,North,-999,0.0,0.0,20,0.00,,,-99.99,FreeWX-Wi 1.01,2013-05-07 23:43:00,
2013-05-07 18:48:00,81.0,37.4,27.82,North,-999,0.0,0.0,21,0.00,,,-99.99,FreeWX-Wi 1.01,2013-05-07 23:48:00,
2013-05-07 18:53:00,80.1,37.8,27.82,North,-999,0.0,0.0,22,0.00,,,-99.99,FreeWX-Wi 1.01,2013-05-07 23:53:00,
2013-05-07 18:58:00,78.6,36.5,27.82,North,-999,0.0,0.0,22,0.00,,,-99.99,FreeWX-Wi 1.01,2013-05-07 23:58:00,
2013-05-07 19:03:00,77.7,38.1,27.82,North,-999,0.0,0.0,24,0.00,,,-99.99,FreeWX-Wi 1.01,2013-05-08 00:03:00,
2013-05-07 19:09:00,77.7,40.1,27.82,North,-999,0.0,0.0,26,0.00,,,-99.99,FreeWX-Wi 1.01,2013-05-08 00:09:00,
2013-05-07 19:14:00,77.0,39.6,27.82,North,-999,0.0,0.0,26,0.00,,,-99.99,FreeWX-Wi 1.01,2013-05-08 00:14:00,
2013-05-07 19:19:00,74.7,40.3,27.82,North,-999,0.0,0.0,29,0.00,,,-99.99,FreeWX-Wi 1.01,2013-05-08 00:19:00,
2013-05-07 19:24:00,72.5,40.1,27.82,North,-999,0.0,0.0,31,0.00,,,-99.99,FreeWX-Wi 1.01,2013-05-08 00:24:00,
2013-05-07 19:29:00,71.6,39.4,27.82,North,-999,0.0,0.0,31,0.00,,,-99.99,FreeWX-Wi 1.01,2013-05-08 00:29:00,
2013-05-07 19:34:00,71.6,40.1,27.82,North,-999,0.0,0.0,32,0.00,,,-99.99,FreeWX-Wi 1.01,2013-05-08 00:34:00,
2013-05-07 19:39:00,71.8,40.3,27.82,North,-999,0.0,0.0,32,0.00,,,-99.99,FreeWX-Wi 1.01,2013-05-08 00:39:00,
2013-05-07 19:44:00,71.2,40.6,27.82,North,-999,0.0,0.0,33,0.00,,,-99.99,FreeWX-Wi 1.01,2013-05-08 00:44:00,
2013-05-07 19:49:00,70.5,40.8,27.82,North,-999,0.0,0.0,34,0.00,,,-99.99,FreeWX-Wi 1.01,2013-05-08 00:49:00,
2013-05-07 19:54:00,69.4,39.9,27.82,North,-999,0.0,0.0,34,0.00,,,-99.99,FreeWX-Wi 1.01,2013-05-08 00:54:00,
2013-05-07 19:59:00,68.7,42.8,27.82,North,-999,0.0,0.0,39,0.00,,,-99.99,FreeWX-Wi 1.01,2013-05-08 00:59:00,
2013-05-07 20:04:00,67.8,42.6,27.82,North,-999,0.0,0.0,40,0.00,,,-99.99,FreeWX-Wi 1.01,2013-05-08 01:04:00,
2013-05-07 20:09:00,67.1,43.9,27.82,North,-999,0.0,0.0,43,0.00,,,-99.99,FreeWX-Wi 1.01,2013-05-08 01:09:00,
2013-05-07 20:14:00,66.6,42.8,27.82,North,-999,0.0,0.0,42,0.00,,,-99.99,FreeWX-Wi 1.01,2013-05-08 01:14:00,
2013-05-07 20:19:00,66.0,41.7,27.82,North,-999,0.0,0.0,41,0.00,,,-99.99,FreeWX-Wi 1.01,2013-05-08 01:19:00,
2013-05-07 20:24:00,65.7,40.6,27.82,North,-999,0.0,0.0,40,0.00,,,-99.99,FreeWX-Wi 1.01,2013-05-08 01:24:00,
2013-05-07 20:29:00,65.5,41.7,27.82,North,-999,0.0,0.0,42,0.00,,,-99.99,FreeWX-Wi 1.01,2013-05-08 01:29:00,
2013-05-07 20:35:00,65.1,41.5,27.82,North,-999,0.0,0.0,42,0.00,,,-99.99,FreeWX-Wi 1.01,2013-05-08 01:35:00,
2013-05-07 20:40:00,64.8,41.2,27.82,North,-999,0.0,0.0,42,0.00,,,-99.99,FreeWX-Wi 1.01,2013-05-08 01:40:00,
2013-05-07 20:45:00,64.8,40.5,27.82,North,-999,0.0,0.0,41,0.00,,,-99.99,FreeWX-Wi 1.01,2013-05-08 01:45:00,
2013-05-07 20:50:00,64.4,40.1,27.82,North,-999,0.0,0.0,41,0.00,,,-99.99,FreeWX-Wi 1.01,2013-05-08 01:50:00,
2013-05-07 20:55:00,64.4,40.1,27.82,North,-999,0.0,0.0,41,0.00,,,-99.99,FreeWX-Wi 1.01,2013-05-08 01:55:00,
2013-05-07 21:00:00,64.2,41.9,27.82,North,-999,0.0,0.0,44,0.00,,,-99.99,FreeWX-Wi 1.01,2013-05-08 02:00:00,
2013-05-07 21:05:00,63.7,41.4,27.82,North,-999,0.0,0.0,44,0.00,,,-99.99,FreeWX-Wi 1.01,2013-05-08 02:05:00,
2013-05-07 21:10:00,63.0,40.6,27.82,North,-999,0.0,0.0,44,0.00,,,-99.99,FreeWX-Wi 1.01,2013-05-08 02:10:00,
2013-05-07 21:15:00,62.4,41.4,27.82,North,-999,0.0,0.0,46,0.00,,,-99.99,FreeWX-Wi 1.01,2013-05-08 02:15:00,
2013-05-07 21:21:00,61.9,41.4,27.82,North,-999,0.0,0.0,47,0.00,,,-99.99,FreeWX-Wi 1.01,2013-05-08 02:21:00,
2013-05-07 21:26:00,61.7,41.7,27.82,North,-999,0.0,0.0,48,0.00,,,-99.99,FreeWX-Wi 1.01,2013-05-08 02:26:00,
2013-05-07 21:31:00,61.7,41.7,27.82,North,-999,0.0,0.0,48,0.00,,,-99.99,FreeWX-Wi 1.01,2013-05-08 02:31:00,
2013-05-07 21:36:00,61.3,43.0,27.82,North,-999,0.0,0.0,51,0.00,,,-99.99,FreeWX-Wi 1.01,2013-05-08 02:36:00,
2013-05-07 21:41:00,61.2,43.9,27.82,North,-999,0.0,0.0,53,0.00,,,-99.99,FreeWX-Wi 1.01,2013-05-08 02:41:00,
2013-05-07 21:47:00,60.6,44.4,27.82,North,-999,0.0,0.0,55,0.00,,,-99.99,FreeWX-Wi 1.01,2013-05-08 02:47:00,
2013-05-07 21:52:00,60.3,44.1,27.82,North,-999,0.0,0.0,55,0.00,,,-99.99,FreeWX-Wi 1.01,2013-05-08 02:52:00,
2013-05-07 21:57:00,60.1,43.0,27.82,North,-999,0.0,0.0,53,0.00,,,-99.99,FreeWX-Wi 1.01,2013-05-08 02:57:00,
2013-05-07 22:02:00,60.1,42.4,27.82,North,-999,0.0,0.0,52,0.00,,,-99.99,FreeWX-Wi 1.01,2013-05-08 03:02:00,
2013-05-07 22:07:00,59.7,43.0,27.82,North,-999,0.0,0.0,54,0.00,,,-99.99,FreeWX-Wi 1.01,2013-05-08 03:07:00,
2013-05-07 22:12:00,59.7,43.5,27.82,North,-999,0.0,0.0,55,0.00,,,-99.99,FreeWX-Wi 1.01,2013-05-08 03:12:00,
2013-05-07 22:17:00,59.5,44.2,27.82,North,-999,0.0,0.0,57,0.00,,,-99.99,FreeWX-Wi 1.01,2013-05-08 03:17:00,
2013-05-07 22:22:00,59.2,43.5,27.82,North,-999,0.0,0.0,56,0.00,,,-99.99,FreeWX-Wi 1.01,2013-05-08 03:22:00,
2013-05-07 22:27:00,59.2,44.4,27.82,North,-999,0.0,0.0,58,0.00,,,-99.99,FreeWX-Wi 1.01,2013-05-08 03:27:00,
2013-05-07 22:32:00,59.0,44.6,27.82,North,-999,0.0,0.0,59,0.00,,,-99.99,FreeWX-Wi 1.01,2013-05-08 03:32:00,
2013-05-07 22:37:00,58.8,45.0,27.82,North,-999,0.0,0.0,60,0.00,,,-99.99,FreeWX-Wi 1.01,2013-05-08 03:37:00,
2013-05-07 22:43:00,57.9,46.6,27.82,North,-999,0.0,0.0,66,0.00,,,-99.99,FreeWX-Wi 1.01,2013-05-08 03:43:00,
2013-05-07 22:48:00,57.2,45.5,27.82,North,-999,0.0,0.0,65,0.00,,,-99.99,FreeWX-Wi 1.01,2013-05-08 03:48:00,
2013-05-07 22:53:00,57.2,45.5,27.82,North,-999,0.0,0.0,65,0.00,,,-99.99,FreeWX-Wi 1.01,2013-05-08 03:53:00,
2013-05-07 22:58:00,57.7,43.9,27.82,North,-999,0.0,0.0,60,0.00,,,-99.99,FreeWX-Wi 1.01,2013-05-08 03:58:00,
2013-05-07 23:03:00,57.9,44.1,27.82,North,-999,0.0,0.0,60,0.00,,,-99.99,FreeWX-Wi 1.01,2013-05-08 04:03:00,
2013-05-07 23:08:00,57.2,43.9,27.82,North,-999,0.0,0.0,61,0.00,,,-99.99,FreeWX-Wi 1.01,2013-05-08 04:08:00,
2013-05-07 23:13:00,57.2,43.0,27.82,North,-999,0.0,0.0,59,0.00,,,-99.99,FreeWX-Wi 1.01,2013-05-08 04:13:00,
2013-05-07 23:18:00,58.3,42.6,27.82,North,-999,0.0,0.0,56,0.00,,,-99.99,FreeWX-Wi 1.01,2013-05-08 04:18:00,
2013-05-07 23:23:00,58.5,43.7,27.82,North,-999,0.0,0.0,58,0.00,,,-99.99,FreeWX-Wi 1.01,2013-05-08 04:23:00,
2013-05-07 23:29:00,57.2,44.8,27.82,North,-999,0.0,0.0,63,0.00,,,-99.99,FreeWX-Wi 1.01,2013-05-08 04:29:00,
2013-05-07 23:34:00,56.8,45.1,27.82,North,-999,0.0,0.0,65,0.00,,,-99.99,FreeWX-Wi 1.01,2013-05-08 04:34:00,
2013-05-07 23:39:00,56.8,46.4,27.82,North,-999,0.0,0.0,68,0.00,,,-99.99,FreeWX-Wi 1.01,2013-05-08 04:39:00,
2013-05-07 23:44:00,56.5,46.0,27.82,North,-999,0.0,0.0,68,0.00,,,-99.99,FreeWX-Wi 1.01,2013-05-08 04:44:00,
2013-05-07 23:49:00,56.5,46.0,27.82,North,-999,0.0,0.0,68,0.00,,,-99.99,FreeWX-Wi 1.01,2013-05-08 04:49:00,
2013-05-07 23:54:00,56.8,46.4,27.82,North,-999,0.0,0.0,68,0.00,,,-99.99,FreeWX-Wi 1.01,2013-05-08 04:54:00,
2013-05-07 23:59:00,56.5,46.0,27.82,North,-999,0.0,0.0,68,0.00,,,-99.99,FreeWX-Wi 1.01,2013-05-08 04:59:00,